User: anonymous   Login
Location: Unspecified
(0.0000°N, 0.0000°E)
Time: 13:15:55
(UTC+00:00)
Language:

CAPE 1 - Orbit

View from above orbital plane
View from above orbital plane
View from above satellite
View from above satellite

Ground track
Ground track

The orbit data is extracted from the following two-line orbital elements,

1 31130U 07012P   21015.55894694  .00000154  00000-0  42858-4 0  9998
2 31130  98.2206 316.6301 0097090  98.1262 263.0964 14.56618179729691
Epoch (UTC): 15 January 2021 13:24:53
Eccentricity: 0.0097090
inclination: 98.2206°
perigee height: 635 km
apogee height: 773 km
right ascension of ascending node: 316.6301°
argument of perigee: 98.1262°
revolutions per day: 14.56618179
mean anomaly at epoch: 263.0964°
orbit number at epoch: 72969

The dashed part of the orbit path shows where the satellite is in the earth's shadow,  

DLR